Location: �clusier
(49.9361°N, 2.7869°E)
Time: 07:00:16
(UTC+00:00)

Centaur D AC-29 - Pass Details

Date: 16 June 2021
Orbit: 531 x 36307 km, 26.6° (Epoch: 31 July)

Event Time Altitude Azimuth Distance (km) Brightness Sun altitude
Rises 20:49:21 0° 264° (W) 22,602 9.5 -6.5°
Reaches altitude 10° 21:34:08 10° 257° (WSW) 11,279 7.7 -10.8°
Maximum altitude 21:54:24 21° 219° (SW) 4,397 5.1 -12.3°
Enters shadow 22:00:02 12° 178° (S) 3,323 4.2 -12.8°
